#timestamp,LO_Frequency,Hit,StdDev 
1522908015.9,286047000.3,N
1522908035.7,286047000.9,N
1522908055.6,286046998.9,N
1522908075.4,286046999.4,N
1522908095.3,286046998.2,N
1522908115.1,286046998.9,N
1522908116.0,286046998.9,N
1522908135.8,286046998.7,N
1522908155.7,286046998.7,N
1522908175.5,286046997.4,N
1522908195.3,286046999.0,N
1522908215.2,286047001.1,N
1522908235.0,286047002.7,N
1522908235.9,286047002.7,N
1522908255.8,286046999.9,N
1522908275.6,286047000.4,N
1522908295.4,286046999.3,N
1522908315.3,286046997.0,N
1522908335.1,286046997.5,N
1522908355.9,286046997.3,N
1522908375.7,286046999.1,N
1522908395.5,286046997.5,N
1522908415.4,286046999.6,N
1522908435.2,286046998.3,N
1522908455.0,286047000.3,N
1522908455.9,286047000.3,N
1522908475.8,286047000.0,N
1522908495.6,286047001.8,N
1522908515.5,286047000.4,N
1522908535.3,286047000.9,N
1522908555.1,286046998.3,N
1522908575.9,286046998.9,N
1522908595.7,286047000.7,N
1522908615.5,286046999.9,N
1522908635.4,286047000.5,N
1522908655.2,286047001.1,N
1522908675.1,286046998.2,N
1522908676.0,286046998.2,N
1522908695.8,286047000.9,N
1522908715.6,286046999.1,N
1522908735.5,286046998.9,N
1522908755.3,286046999.5,N
1522908775.2,286046999.4,N
1522908795.9,286046998.2,N
1522908815.7,286046999.2,N
1522908835.6,286046999.6,N
1522908855.4,286046998.3,N
1522908875.2,286047000.6,N
1522908895.1,286047000.1,N
1522908896.0,286047000.1,N
1522908915.8,286047000.6,N
1522908935.7,286047000.6,N
1522908955.5,286046998.4,N
1522908975.3,286047000.4,N
1522908995.2,286046998.8,N
1522909015.0,286046998.1,N
1522909015.9,286046998.1,N
1522909035.8,286046999.4,N
1522909055.6,286046998.4,N
1522909075.4,286046999.3,N
1522909095.3,286046998.7,N
1522909115.1,286046996.6,Y
1522909135.9,286046998.7,P
1522909155.7,286046998.9,P
1522909175.5,286046999.0,P
1522909195.4,286046998.8,Y
1522909215.2,286047002.3,P
1522909235.1,286046999.9,N
1522909236.0,286046999.9,N
1522909255.8,286047001.6,N
1522909275.6,286047000.5,N
1522909295.5,286046999.8,N
1522909315.3,286047002.4,N
1522909335.1,286047002.3,N
1522909355.9,286047003.8,Y
1522909375.7,286047002.0,P
1522909395.6,286047001.4,N
1522909415.4,286047003.7,P
1522909435.2,286047001.3,N
1522909455.1,286047001.5,N
1522909456.0,286047001.5,N
1522909475.8,286047003.5,Y
1522909495.7,286047002.8,P
1522909515.5,286047001.5,N
1522909535.3,286047001.2,N
1522909555.2,286046998.5,N
1522909575.0,286046998.3,N
1522909575.9,286046998.3,N
1522909595.8,286046996.6,N
1522909615.6,286046998.3,N
1522909635.4,286047001.0,N
1522909655.3,286047000.1,N
1522909675.1,286046999.8,N
1522909695.8,286046998.9,N
1522909715.7,286046999.5,N
1522909735.5,286046999.5,N
1522909755.4,286046999.0,N
1522909775.2,286046999.3,N
1522909795.0,286046998.2,N
1522909795.9,286046998.2,N
1522909815.8,286046996.7,N
1522909835.6,286046998.4,N
1522909855.4,286046998.7,N
1522909875.3,286046994.9,Y
1522909895.1,286046996.5,P
1522909915.9,286046999.1,N
1522909935.7,286046998.2,N
1522909955.5,286046998.4,N
1522909975.4,286046999.2,N
1522909995.2,286046997.2,N
1522910015.1,286046997.0,Y
1522910016.0,286046997.0,P
1522910035.8,286046999.0,N
1522910055.6,286046999.6,N
1522910075.5,286046999.9,N
1522910095.3,286047001.1,N
1522910115.2,286046998.2,N
1522910135.9,286046998.2,N
1522910155.7,286047000.5,N
1522910175.6,286047000.1,N
1522910195.4,286047000.4,N
1522910215.3,286046998.8,N
1522910235.1,286047000.8,N
1522910236.0,286047000.8,N
1522910255.8,286047000.9,N
1522910275.7,286047000.9,N
1522910295.5,286047000.8,N
1522910315.3,286047000.7,N
1522910335.2,286047000.9,N
1522910355.0,286046996.6,N
1522910355.9,286046996.6,N
1522910375.8,286047001.1,N
1522910395.6,286047002.5,N
1522910415.4,286047002.1,N
1522910435.3,286047002.8,N
1522910455.1,286047004.0,N
1522910475.9,286047002.6,N
1522910495.7,286047000.3,N
1522910515.5,286047000.9,N
1522910535.4,286046998.6,N
1522910555.2,286046998.3,N
1522910575.0,286046998.6,N
1522910575.9,286046998.6,N
1522910595.8,286046999.3,N
1522910615.6,286046998.5,N
1522910635.5,286047000.5,N
1522910655.3,286047000.6,N
1522910675.1,286046999.8,N
1522910695.9,286047001.8,N
1522910715.7,286047001.5,N
1522910735.5,286047004.4,N
1522910755.4,286047001.7,N
1522910775.2,286047004.0,N
1522910795.1,286047005.9,Y
1522910796.0,286047005.9,P
1522910815.8,286047004.1,N
1522910835.7,286047003.6,N
1522910855.5,286047001.3,N
1522910875.3,286047002.2,N
1522910895.2,286047000.7,N
1522910915.0,286047000.0,N
1522910915.9,286047000.0,N
1522910935.8,286047000.9,N
1522910955.6,286047000.3,N
1522910975.4,286047000.4,N
1522910995.3,286047000.6,N
1522911015.1,286047000.3,N
1522911035.9,286047001.0,N
1522911055.7,286047001.2,N
1522911075.5,286047002.4,N
1522911095.4,286046999.7,N
1522911115.2,286046999.9,N
1522911135.0,286047000.9,N
1522911135.9,286047000.9,N
1522911155.8,286047000.9,N
1522911175.6,286046999.1,N
1522911195.5,286046999.4,N
1522911215.3,286046998.2,N
1522911235.1,286046998.9,N
1522911255.9,286046999.0,N
1522911275.7,286047000.7,N
1522911295.6,286047000.7,N
1522911315.4,286047002.8,N
1522911335.2,286046998.5,N
1522911355.1,286046998.8,N
1522911356.0,286046998.8,N
1522911375.8,286046998.7,N
1522911395.6,286047002.7,N
1522911415.5,286046998.3,N
1522911435.3,286046998.2,N
1522911455.2,286046999.4,N
1522911475.9,286046998.2,N
1522911495.7,286047000.6,N
1522911515.6,286047002.2,N
1522911535.4,286047000.6,N
1522911555.3,286047001.0,N
1522911575.1,286047001.6,N
1522911576.0,286047001.6,N
1522911595.8,286046999.8,N
